Flag for U.S.A. Weather past 2 weeks in Independence, Missouri, U.S.A.

Now
67 °F

Low clouds.


Feels Like: 67 °F
Forecast: 60 / 76 °F
Wind: 6 mph from East

Location: Lee's Summit Municipal Airport

Current Time: Sep 17, 2014 at 1:34:48 PM

Latest Report: Sep 17, 2014 at 12:53 PM


Visibility: 8 mi

Pressure: 29.93 "Hg

Humidity: 93%

Dew point: 65 °F

Location of IndependenceLocation

Historic Weather in Independence — Graph

°F

Independence temperature yesterday

Maximum temperature yesterday: 71 °F (at 4:53 PM)
Minimum temperature yesterday: 47 °F (at 6:59 AM)
Average temperature yesterday: 60 °F

Past Weeks' High & Low Weather Summary

 TemperatureHumidityPressure
High91 °F (Sep 4, 2:53 PM)97% (Sep 16, 6:59 AM)30.43 "Hg (Sep 16, 6:59 AM)
Low39 °F (Sep 13, 4:59 AM)41% (Sep 13, 3:53 PM)29.53 "Hg (Sep 10, 12:53 AM)
Average67 °F75%30.07 "Hg
* Reported Sep 2 11:53 AM — Sep 17 11:53 AM, Independence, Weather by CustomWeather, © 2014

Note: Actual official high and low records may vary slightly from our data, if they occured in-between our weather recording intervals... More about our weather records

Advertising

Independence weather history for previous 24 hours

 ConditionsComfort  
Time TempWeatherWind HumidityBarometerVisibility
11:53 AM
Sep 17
66 °FFog.6 mph96%29.93 "Hg3 mi
11:04 AM66 °FFog.6 mph93%29.95 "Hg2 mi
10:53 AM66 °FFog.5 mph93%29.93 "Hg3 mi
10:03 AM65 °FMostly cloudy.3 mph94%29.95 "Hg7 mi
9:53 AM65 °FMostly cloudy.5 mph94%29.93 "Hg7 mi
8:53 AM64 °FLow clouds.No wind97%29.92 "Hg7 mi
7:53 AM63 °FMostly cloudy.3 mph97%29.93 "Hg7 mi
7:02 AM63 °FThundershowers. Fog.3 mph97%29.93 "Hg5 mi
6:58 AM62 °FThunderstorms. Fog.7 mph96%29.93 "Hg3 mi
5:53 AM62 °FThundershowers. Overcast.5 mph96%29.90 "Hg7 mi
4:53 AM62 °FThundershowers. Fog.6 mph93%29.92 "Hg6 mi
3:53 AM63 °FPassing clouds.6 mph87%29.96 "Hg10 mi
2:53 AM63 °FOvercast.7 mph84%29.98 "Hg10 mi
1:53 AM63 °FOvercast.5 mph84%30.00 "Hg10 mi
12:53 AM64 °FOvercast.3 mph75%30.01 "Hg10 mi
11:53 PM
Sep 16
64 °FOvercast.3 mph75%30.03 "Hg10 mi
10:53 PM63 °FOvercast.5 mph75%30.05 "Hg10 mi
9:53 PM63 °FClear.5 mph75%30.05 "Hg10 mi
8:53 PM64 °FClear.5 mph73%30.04 "Hg10 mi
7:53 PM65 °FSunny.5 mph68%30.04 "Hg10 mi
6:53 PM68 °FSunny.5 mph59%30.05 "Hg10 mi
5:53 PM70 °FSunny.3 mph53%30.06 "Hg10 mi
4:53 PM71 °FSunny.5 mph53%30.07 "Hg10 mi
3:53 PM70 °FSunny.No wind53%30.09 "Hg10 mi
2:53 PM69 °FSunny.3 mph53%30.12 "Hg10 mi
1:53 PM68 °FSunny.3 mph55%30.15 "Hg10 mi
Weather by CustomWeather, © 2014

See weather overviewHow to use our weather pages